JBU767 KMCO-TJPS

Flight info

Callsign JBU767
Flight time 2h 18m
Altitude 37000
Route DDANY3 VALKA DCT EBAYY DCT ZFP DCT SUMAC Y421 MEEGL
Aircraft A320/M-SDE3FGHIRWY/LB1

Departure

Time 2026-05-06 01:59
Airport Orlando International Airport (KMCO)

Arrival

Time 2026-05-06 04:18
Airport Mercedita International Airport (TJPS)
Time Latitude Longitude Altitude Speed Heading
2026-05-06 01:22 28.42683 -81.31534 85 ft 0 kts 124°
2026-05-06 01:43 28.42691 -81.31551 102 ft 4 kts 111°
2026-05-06 01:43 28.42701 -81.31571 102 ft 4 kts 123°
2026-05-06 01:43 28.42714 -81.31597 102 ft 4 kts 104°
2026-05-06 01:44 28.42716 -81.31627 102 ft 4 kts 81°
2026-05-06 01:44 28.42708 -81.31649 102 ft 4 kts 18°
2026-05-06 01:44 28.42685 -81.31648 100 ft 3 kts 347°
2026-05-06 01:44 28.42682 -81.31647 100 ft 0 kts 347°
2026-05-06 01:47 28.42683 -81.31647 100 ft 1 kts 347°
2026-05-06 01:48 28.42691 -81.31650 100 ft 3 kts 347°
2026-05-06 01:48 28.42711 -81.31668 101 ft 5 kts 301°
2026-05-06 01:48 28.42711 -81.31708 103 ft 5 kts 265°
2026-05-06 01:48 28.42710 -81.31747 104 ft 4 kts 268°
2026-05-06 01:49 28.42709 -81.31780 105 ft 4 kts 268°
2026-05-06 01:49 28.42707 -81.31808 106 ft 3 kts 261°
2026-05-06 01:49 28.42691 -81.31828 107 ft 5 kts 213°
2026-05-06 01:49 28.42643 -81.31834 106 ft 9 kts 179°
2026-05-06 01:50 28.42558 -81.31833 107 ft 15 kts 179°
2026-05-06 01:50 28.42442 -81.31831 106 ft 18 kts 179°
2026-05-06 01:50 28.42316 -81.31831 107 ft 17 kts 179°
2026-05-06 01:50 28.42267 -81.31736 105 ft 19 kts 85°
2026-05-06 01:51 28.42265 -81.31574 102 ft 21 kts 90°
2026-05-06 01:51 28.42267 -81.31405 101 ft 19 kts 90°
2026-05-06 01:51 28.42267 -81.31249 100 ft 21 kts 95°
2026-05-06 01:51 28.42245 -81.31099 100 ft 19 kts 99°
2026-05-06 01:52 28.42235 -81.30963 102 ft 17 kts 89°
2026-05-06 01:52 28.42243 -81.30818 103 ft 19 kts 84°
2026-05-06 01:52 28.42254 -81.30667 104 ft 20 kts 85°
2026-05-06 01:52 28.42266 -81.30506 104 ft 20 kts 85°
2026-05-06 01:53 28.42275 -81.30340 102 ft 22 kts 88°
2026-05-06 01:53 28.42278 -81.30168 102 ft 22 kts 88°
2026-05-06 01:53 28.42279 -81.29996 104 ft 21 kts 90°
2026-05-06 01:53 28.42275 -81.29835 104 ft 19 kts 110°
2026-05-06 01:54 28.42154 -81.29793 102 ft 20 kts 178°
2026-05-06 01:54 28.42010 -81.29791 102 ft 22 kts 180°
2026-05-06 01:54 28.41856 -81.29790 102 ft 22 kts 179°
2026-05-06 01:54 28.41706 -81.29788 102 ft 21 kts 181°
2026-05-06 01:55 28.41554 -81.29785 102 ft 22 kts 179°
2026-05-06 01:55 28.41409 -81.29784 101 ft 21 kts 179°
2026-05-06 01:55 28.41260 -81.29782 101 ft 22 kts 179°
2026-05-06 01:55 28.41107 -81.29781 101 ft 22 kts 181°
2026-05-06 01:56 28.40965 -81.29778 100 ft 19 kts 179°
2026-05-06 01:56 28.40837 -81.29764 100 ft 17 kts 143°
2026-05-06 01:56 28.40822 -81.29663 98 ft 10 kts 89°
2026-05-06 01:56 28.40822 -81.29651 98 ft 0 kts 89°
2026-05-06 01:58 28.40822 -81.29649 98 ft 2 kts 89°
2026-05-06 01:58 28.40822 -81.29614 97 ft 7 kts 89°
2026-05-06 01:58 28.40848 -81.29563 97 ft 10 kts 23°
2026-05-06 01:58 28.40975 -81.29561 100 ft 41 kts 359°
2026-05-06 01:59 28.41493 -81.29566 105 ft 105 kts 359°
2026-05-06 01:59 28.42404 -81.29574 101 ft 154 kts
2026-05-06 01:59 28.43534 -81.29554 481 ft 164 kts
2026-05-06 01:59 28.44671 -81.29472 1081 ft 162 kts 23°
2026-05-06 02:00 28.45628 -81.28845 1527 ft 164 kts 52°
2026-05-06 02:00 28.46362 -81.27783 1764 ft 184 kts 57°
2026-05-06 02:00 28.47194 -81.26523 2027 ft 209 kts 56°
2026-05-06 02:00 28.48105 -81.25141 2386 ft 233 kts 54°
2026-05-06 02:01 28.49144 -81.23570 2849 ft 255 kts 54°
2026-05-06 02:01 28.50154 -81.21900 3556 ft 265 kts 65°
2026-05-06 02:01 28.50656 -81.19864 4336 ft 273 kts 78°
2026-05-06 02:01 28.51021 -81.17709 4848 ft 281 kts 83°
2026-05-06 02:02 28.50915 -81.15501 5082 ft 284 kts 105°
2026-05-06 02:02 28.50388 -81.13333 5959 ft 285 kts 105°
2026-05-06 02:02 28.49877 -81.11131 6674 ft 292 kts 105°
2026-05-06 02:02 28.49368 -81.08882 6913 ft 294 kts 104°
2026-05-06 02:03 28.48797 -81.06650 6991 ft 294 kts 112°
2026-05-06 02:03 28.47805 -81.04623 7001 ft 293 kts 128°
2026-05-06 02:03 28.46398 -81.02962 7011 ft 292 kts 143°
2026-05-06 02:03 28.44813 -81.01525 7015 ft 292 kts 143°
2026-05-06 02:04 28.43230 -81.00087 7013 ft 292 kts 143°
2026-05-06 02:04 28.41645 -80.98645 7017 ft 292 kts 143°
2026-05-06 02:04 28.40060 -80.97203 7015 ft 292 kts 143°
2026-05-06 02:04 28.38477 -80.95763 7014 ft 292 kts 143°
2026-05-06 02:05 28.36894 -80.94320 7014 ft 292 kts 143°
2026-05-06 02:05 28.35311 -80.92880 7009 ft 291 kts 143°
2026-05-06 02:05 28.33730 -80.91444 7013 ft 291 kts 143°
2026-05-06 02:05 28.32150 -80.90008 7000 ft 291 kts 143°
2026-05-06 02:06 28.30574 -80.88566 7005 ft 291 kts 141°
2026-05-06 02:06 28.29127 -80.86955 7003 ft 292 kts 132°
2026-05-06 02:06 28.27889 -80.85129 7003 ft 293 kts 124°
2026-05-06 02:06 28.26883 -80.83117 7002 ft 294 kts 116°
2026-05-06 02:07 28.26104 -80.81008 7003 ft 294 kts 112°
2026-05-06 02:07 28.25336 -80.78859 7004 ft 294 kts 112°
2026-05-06 02:07 28.24564 -80.76715 7005 ft 294 kts 112°
2026-05-06 02:07 28.23788 -80.74572 6993 ft 294 kts 112°
2026-05-06 02:08 28.22998 -80.72436 7005 ft 293 kts 116°
2026-05-06 02:08 28.21977 -80.70451 7016 ft 294 kts 127°
2026-05-06 02:08 28.20641 -80.68691 7651 ft 296 kts 136°
2026-05-06 02:08 28.19054 -80.67187 8428 ft 300 kts 146°
2026-05-06 02:09 28.17222 -80.66006 9136 ft 306 kts 157°
2026-05-06 02:09 28.15196 -80.65196 9825 ft 312 kts 165°
2026-05-06 02:09 28.13081 -80.64476 10258 ft 327 kts 165°
2026-05-06 02:09 28.10823 -80.63707 10410 ft 350 kts 164°
2026-05-06 02:10 28.08421 -80.62883 10632 ft 368 kts 164°
2026-05-06 02:10 28.05945 -80.62025 11171 ft 374 kts 164°
2026-05-06 02:10 28.03444 -80.61157 11798 ft 377 kts 164°
2026-05-06 02:10 28.00923 -80.60283 12429 ft 380 kts 164°
2026-05-06 02:11 27.98387 -80.59404 13085 ft 383 kts 164°
2026-05-06 02:11 27.95837 -80.58523 13721 ft 385 kts 164°
2026-05-06 02:11 27.93263 -80.57637 14289 ft 388 kts 165°
2026-05-06 02:11 27.90667 -80.56740 14807 ft 392 kts 164°
2026-05-06 02:12 27.88053 -80.55799 15321 ft 396 kts 163°
2026-05-06 02:12 27.85421 -80.54822 15828 ft 400 kts 163°
2026-05-06 02:12 27.82768 -80.53824 16344 ft 404 kts 163°
2026-05-06 02:12 27.80090 -80.52817 16858 ft 408 kts 163°
2026-05-06 02:13 27.77384 -80.51804 17362 ft 412 kts 163°
2026-05-06 02:13 27.74735 -80.50507 17855 ft 419 kts 152°
2026-05-06 02:13 27.72302 -80.48665 18357 ft 425 kts 141°
2026-05-06 02:13 27.70181 -80.46321 18785 ft 430 kts 130°
2026-05-06 02:14 27.68332 -80.43648 19248 ft 434 kts 127°
2026-05-06 02:14 27.66484 -80.40946 19702 ft 438 kts 128°
2026-05-06 02:14 27.64613 -80.38220 20158 ft 442 kts 128°
2026-05-06 02:14 27.62721 -80.35471 20609 ft 446 kts 128°
2026-05-06 02:15 27.60808 -80.32701 21051 ft 450 kts 128°
2026-05-06 02:15 27.58876 -80.29908 21495 ft 454 kts 128°
2026-05-06 02:15 27.56928 -80.27094 21917 ft 458 kts 128°
2026-05-06 02:15 27.54964 -80.24252 22322 ft 461 kts 128°
2026-05-06 02:16 27.52985 -80.21387 22715 ft 465 kts 128°
2026-05-06 02:16 27.50991 -80.18501 23101 ft 469 kts 128°
2026-05-06 02:16 27.48979 -80.15595 23501 ft 472 kts 128°
2026-05-06 02:16 27.46979 -80.12714 23856 ft 475 kts 128°
2026-05-06 02:17 27.44941 -80.09777 24174 ft 477 kts 128°
2026-05-06 02:17 27.42889 -80.06822 24478 ft 480 kts 128°
2026-05-06 02:17 27.40824 -80.03852 24784 ft 483 kts 128°
2026-05-06 02:17 27.38749 -80.00862 25099 ft 486 kts 128°
2026-05-06 02:18 27.36662 -79.97854 25403 ft 489 kts 128°
2026-05-06 02:18 27.34562 -79.94829 25707 ft 492 kts 128°
2026-05-06 02:18 27.32453 -79.91796 25999 ft 495 kts 128°
2026-05-06 02:18 27.30321 -79.88734 26298 ft 498 kts 128°
2026-05-06 02:19 27.28184 -79.85671 26587 ft 500 kts 128°
2026-05-06 02:19 27.26031 -79.82585 26877 ft 503 kts 127°
2026-05-06 02:19 27.23864 -79.79483 27169 ft 506 kts 127°
2026-05-06 02:19 27.21687 -79.76367 27466 ft 509 kts 127°
2026-05-06 02:20 27.17287 -79.70074 28050 ft 515 kts 127°
2026-05-06 02:20 27.15073 -79.66911 28348 ft 517 kts 127°
2026-05-06 02:20 27.12844 -79.63727 28631 ft 520 kts 127°
2026-05-06 02:21 27.10597 -79.60520 28914 ft 523 kts 127°
2026-05-06 02:21 27.08343 -79.57305 29174 ft 526 kts 127°
2026-05-06 02:21 27.06079 -79.54079 29499 ft 527 kts 127°
2026-05-06 02:21 27.03814 -79.50849 29869 ft 527 kts 127°
2026-05-06 02:22 27.01547 -79.47620 30258 ft 527 kts 127°
2026-05-06 02:22 26.99276 -79.44390 30589 ft 527 kts 127°
2026-05-06 02:22 26.97000 -79.41161 30920 ft 528 kts 127°
2026-05-06 02:22 26.94720 -79.37933 31259 ft 528 kts 127°
2026-05-06 02:23 26.92435 -79.34702 31589 ft 529 kts 127°
2026-05-06 02:23 26.90148 -79.31467 31919 ft 530 kts 126°
2026-05-06 02:23 26.87860 -79.28229 32258 ft 530 kts 126°
2026-05-06 02:23 26.85569 -79.24987 32590 ft 531 kts 126°
2026-05-06 02:24 26.83276 -79.21739 32927 ft 532 kts 126°
2026-05-06 02:24 26.80979 -79.18488 33247 ft 533 kts 126°
2026-05-06 02:24 26.78679 -79.15231 33584 ft 534 kts 126°
2026-05-06 02:24 26.76374 -79.11971 33913 ft 534 kts 126°
2026-05-06 02:25 26.74061 -79.08713 34220 ft 535 kts 126°
2026-05-06 02:25 26.71754 -79.05467 34576 ft 534 kts 126°
2026-05-06 02:25 26.69442 -79.02216 34888 ft 533 kts 126°
2026-05-06 02:25 26.67162 -78.99013 35180 ft 533 kts 126°
2026-05-06 02:26 26.64821 -78.95725 35470 ft 533 kts 126°
2026-05-06 02:26 26.62511 -78.92481 35746 ft 533 kts 126°
2026-05-06 02:26 26.60232 -78.89280 36017 ft 533 kts 126°
2026-05-06 02:26 26.57925 -78.86037 36287 ft 533 kts 126°
2026-05-06 02:27 26.55615 -78.82795 36549 ft 533 kts 126°
2026-05-06 02:27 26.53303 -78.79558 36812 ft 533 kts 126°
2026-05-06 02:27 26.50963 -78.76352 37034 ft 534 kts 128°
2026-05-06 02:28 26.45941 -78.70181 37075 ft 539 kts 133°
2026-05-06 02:28 26.40673 -78.64230 37050 ft 539 kts 134°
2026-05-06 02:29 26.35779 -78.58662 37078 ft 538 kts 133°
2026-05-06 02:29 26.30628 -78.52609 37077 ft 538 kts 132°
2026-05-06 02:30 26.25512 -78.46533 37077 ft 538 kts 132°
2026-05-06 02:30 26.20368 -78.40470 37082 ft 538 kts 133°
2026-05-06 02:31 26.15198 -78.34429 37085 ft 538 kts 133°
2026-05-06 02:31 26.10023 -78.28403 37083 ft 539 kts 133°
2026-05-06 02:32 26.04853 -78.22375 37085 ft 538 kts 133°
2026-05-06 02:32 25.99687 -78.16355 37090 ft 538 kts 133°
2026-05-06 02:33 25.94528 -78.10355 37090 ft 537 kts 133°
2026-05-06 02:33 25.92782 -78.08326 37092 ft 537 kts 133°
2026-05-06 02:34 25.84202 -77.98361 37093 ft 537 kts 133°
2026-05-06 02:34 25.79038 -77.92369 37105 ft 537 kts 133°
2026-05-06 02:35 25.73866 -77.86381 37077 ft 537 kts 133°
2026-05-06 02:35 25.68693 -77.80405 37090 ft 537 kts 133°
2026-05-06 02:36 25.63516 -77.74436 37092 ft 537 kts 133°
2026-05-06 02:36 25.58344 -77.68468 37095 ft 537 kts 133°
2026-05-06 02:37 25.53174 -77.62506 37092 ft 536 kts 133°
2026-05-06 02:37 25.47997 -77.56556 37103 ft 536 kts 133°
2026-05-06 02:38 25.42824 -77.50624 37098 ft 536 kts 133°
2026-05-06 02:38 25.37648 -77.44694 37078 ft 535 kts 133°
2026-05-06 02:39 25.32489 -77.38776 37095 ft 534 kts 133°
2026-05-06 02:39 25.27747 -77.32496 37094 ft 531 kts 120°
2026-05-06 02:40 25.23761 -77.25634 37091 ft 530 kts 120°
2026-05-06 02:40 25.19768 -77.18782 37097 ft 530 kts 120°
2026-05-06 02:41 25.15765 -77.11937 37091 ft 530 kts 120°
2026-05-06 02:41 25.11765 -77.05102 37087 ft 530 kts 120°
2026-05-06 02:42 25.07760 -76.98258 37089 ft 531 kts 120°
2026-05-06 02:42 25.03764 -76.91429 37079 ft 530 kts 120°
2026-05-06 02:43 24.99742 -76.84580 37075 ft 537 kts 121°
2026-05-06 02:43 24.95645 -76.77624 37073 ft 543 kts 121°
2026-05-06 02:44 24.91526 -76.70629 37073 ft 544 kts 121°
2026-05-06 02:44 24.87401 -76.63631 37070 ft 545 kts 121°
2026-05-06 02:45 24.83295 -76.56686 37073 ft 545 kts 121°
2026-05-06 02:45 24.79153 -76.49694 37098 ft 546 kts 121°
2026-05-06 02:46 24.75009 -76.42692 37096 ft 546 kts 121°
2026-05-06 02:46 24.70857 -76.35691 37095 ft 547 kts 121°
2026-05-06 02:47 24.67377 -76.29837 37085 ft 546 kts 121°
2026-05-06 02:47 24.63223 -76.22852 37099 ft 546 kts 121°
2026-05-06 02:48 24.59068 -76.15876 37102 ft 545 kts 121°
2026-05-06 02:48 24.54974 -76.08932 37107 ft 545 kts 120°
2026-05-06 02:49 24.51028 -76.01837 37107 ft 544 kts 118°
2026-05-06 02:49 24.47135 -75.94713 37100 ft 544 kts 119°
2026-05-06 02:50 24.43192 -75.87624 37102 ft 544 kts 119°
2026-05-06 02:50 24.39220 -75.80568 37101 ft 544 kts 120°
2026-05-06 02:51 24.35231 -75.73515 37108 ft 544 kts 120°
2026-05-06 02:51 24.31246 -75.66459 37085 ft 544 kts 120°
2026-05-06 02:52 24.27278 -75.59407 37107 ft 543 kts 119°
2026-05-06 02:52 24.23306 -75.52367 37108 ft 543 kts 120°
2026-05-06 02:53 24.19323 -75.45343 37113 ft 542 kts 120°
2026-05-06 02:53 24.15372 -75.38374 37115 ft 542 kts 120°
2026-05-06 02:54 24.11374 -75.31314 37113 ft 542 kts 120°
2026-05-06 02:54 24.07396 -75.24313 37108 ft 542 kts 120°
2026-05-06 02:55 24.03447 -75.17359 37105 ft 542 kts 120°
2026-05-06 02:55 23.99436 -75.10319 37107 ft 541 kts 120°
2026-05-06 02:56 23.95479 -75.03389 37116 ft 541 kts 120°
2026-05-06 02:56 23.91491 -74.96407 37116 ft 541 kts 120°
2026-05-06 02:57 23.87502 -74.89430 37105 ft 541 kts 120°
2026-05-06 02:57 23.83505 -74.82463 37107 ft 541 kts 120°
2026-05-06 02:58 23.79508 -74.75499 37107 ft 541 kts 120°
2026-05-06 02:58 23.75514 -74.68536 37111 ft 541 kts 120°
2026-05-06 02:59 23.71510 -74.61581 37108 ft 541 kts 120°
2026-05-06 02:59 23.67506 -74.54628 37107 ft 541 kts 120°
2026-05-06 03:00 23.63496 -74.47684 37108 ft 541 kts 120°
2026-05-06 03:00 23.59482 -74.40738 37111 ft 541 kts 120°
2026-05-06 03:01 23.55465 -74.33801 37114 ft 541 kts 120°
2026-05-06 03:01 23.51455 -74.26879 37116 ft 540 kts 120°
2026-05-06 03:02 23.47443 -74.19967 37115 ft 540 kts 120°
2026-05-06 03:02 23.43433 -74.13061 37117 ft 539 kts 120°
2026-05-06 03:03 23.39417 -74.06161 37116 ft 539 kts 120°
2026-05-06 03:03 23.35403 -73.99262 37124 ft 539 kts 120°
2026-05-06 03:04 23.31389 -73.92366 37119 ft 539 kts 120°
2026-05-06 03:04 23.27364 -73.85478 37120 ft 539 kts 120°
2026-05-06 03:05 23.23334 -73.78594 37116 ft 540 kts 121°
2026-05-06 03:05 23.19305 -73.71711 37104 ft 539 kts 120°
2026-05-06 03:06 23.15272 -73.64842 37122 ft 539 kts 121°
2026-05-06 03:06 23.11242 -73.57988 37125 ft 538 kts 120°
2026-05-06 03:07 23.07241 -73.51180 37124 ft 538 kts 120°
2026-05-06 03:07 23.03215 -73.44333 37125 ft 538 kts 121°
2026-05-06 03:08 22.99183 -73.37495 37125 ft 538 kts 121°
2026-05-06 03:08 22.95115 -73.30623 37118 ft 538 kts 121°
2026-05-06 03:09 22.91076 -73.23797 37122 ft 537 kts 121°
2026-05-06 03:09 22.87048 -73.16979 37124 ft 537 kts 121°
2026-05-06 03:10 22.83017 -73.10157 37094 ft 537 kts 121°
2026-05-06 03:10 22.79003 -73.03401 37117 ft 536 kts 121°
2026-05-06 03:11 22.74966 -72.96610 37122 ft 536 kts 121°
2026-05-06 03:11 22.70928 -72.89836 37129 ft 535 kts 121°
2026-05-06 03:12 22.66893 -72.83070 37123 ft 535 kts 121°
2026-05-06 03:12 22.62861 -72.76319 37121 ft 534 kts 121°
2026-05-06 03:13 22.58831 -72.69562 37120 ft 534 kts 121°
2026-05-06 03:13 22.54798 -72.62812 37122 ft 534 kts 121°
2026-05-06 03:14 22.50759 -72.56073 37124 ft 534 kts 121°
2026-05-06 03:14 22.46717 -72.49346 37120 ft 533 kts 121°
2026-05-06 03:15 22.42688 -72.42620 37111 ft 532 kts 121°
2026-05-06 03:15 22.38669 -72.35913 37124 ft 531 kts 121°
2026-05-06 03:16 22.34642 -72.29235 37124 ft 530 kts 121°
2026-05-06 03:16 22.30620 -72.22562 37129 ft 529 kts 121°
2026-05-06 03:17 22.26598 -72.15913 37129 ft 528 kts 121°
2026-05-06 03:17 22.22580 -72.09279 37125 ft 528 kts 121°
2026-05-06 03:18 22.18575 -72.02651 37123 ft 527 kts 121°
2026-05-06 03:18 22.14577 -71.96043 37122 ft 526 kts 121°
2026-05-06 03:19 22.10573 -71.89440 37125 ft 525 kts 121°
2026-05-06 03:19 22.06572 -71.82853 37105 ft 525 kts 121°
2026-05-06 03:20 22.00584 -71.73016 37127 ft 522 kts 121°
2026-05-06 03:20 21.96610 -71.66484 37129 ft 521 kts 121°
2026-05-06 03:21 21.92640 -71.59969 37127 ft 520 kts 121°
2026-05-06 03:21 21.88695 -71.53513 37133 ft 519 kts 122°
2026-05-06 03:22 21.84735 -71.47038 37131 ft 518 kts 122°
2026-05-06 03:22 21.80780 -71.40569 37131 ft 517 kts 122°
2026-05-06 03:23 21.76828 -71.34113 37130 ft 516 kts 122°
2026-05-06 03:23 21.72872 -71.27670 37126 ft 516 kts 122°
2026-05-06 03:24 21.68922 -71.21230 37125 ft 516 kts 122°
2026-05-06 03:24 21.64974 -71.14801 37130 ft 515 kts 122°
2026-05-06 03:25 21.61026 -71.08393 37133 ft 513 kts 122°
2026-05-06 03:25 21.56950 -71.02100 37123 ft 514 kts 129°
2026-05-06 03:26 21.52281 -70.96307 37131 ft 513 kts 130°
2026-05-06 03:26 21.47600 -70.90522 37130 ft 513 kts 130°
2026-05-06 03:27 21.42924 -70.84741 37128 ft 512 kts 130°
2026-05-06 03:27 21.38265 -70.78961 37127 ft 511 kts 130°
2026-05-06 03:28 21.33603 -70.73201 37130 ft 511 kts 131°
2026-05-06 03:28 21.28937 -70.67456 37116 ft 510 kts 131°
2026-05-06 03:29 21.24308 -70.61761 37120 ft 510 kts 131°
2026-05-06 03:29 21.19662 -70.56028 37119 ft 509 kts 131°
2026-05-06 03:30 21.15017 -70.50304 37130 ft 509 kts 132°
2026-05-06 03:30 21.10379 -70.44599 37126 ft 508 kts 132°
2026-05-06 03:31 21.05738 -70.38898 37123 ft 508 kts 132°
2026-05-06 03:31 21.01094 -70.33208 37121 ft 507 kts 132°
2026-05-06 03:32 20.97231 -70.28487 37117 ft 507 kts 132°
2026-05-06 03:32 20.91809 -70.21854 37104 ft 506 kts 132°
2026-05-06 03:33 20.87181 -70.16182 37127 ft 505 kts 133°
2026-05-06 03:33 20.82556 -70.10532 37130 ft 504 kts 133°
2026-05-06 03:34 20.78687 -70.05812 37125 ft 504 kts 133°
2026-05-06 03:34 20.74096 -70.00219 37118 ft 504 kts 133°
2026-05-06 03:35 20.69473 -69.94595 37113 ft 504 kts 133°
2026-05-06 03:35 20.64854 -69.88975 37115 ft 503 kts 133°
2026-05-06 03:36 20.60231 -69.83365 37121 ft 503 kts 134°
2026-05-06 03:36 20.55623 -69.77769 37104 ft 502 kts 134°
2026-05-06 03:37 20.51017 -69.72182 37128 ft 501 kts 134°
2026-05-06 03:37 20.46410 -69.66604 37122 ft 501 kts 134°
2026-05-06 03:38 20.41811 -69.61032 37115 ft 500 kts 134°
2026-05-06 03:38 20.37218 -69.55458 37125 ft 500 kts 134°
2026-05-06 03:39 20.32617 -69.49900 37131 ft 500 kts 134°
2026-05-06 03:39 20.28017 -69.44357 37125 ft 499 kts 134°
2026-05-06 03:40 20.23422 -69.38817 37126 ft 499 kts 134°
2026-05-06 03:40 20.18834 -69.33290 37116 ft 498 kts 134°
2026-05-06 03:41 20.14241 -69.27764 37117 ft 498 kts 134°
2026-05-06 03:41 20.09651 -69.22241 37113 ft 498 kts 134°
2026-05-06 03:42 20.05060 -69.16724 37128 ft 498 kts 135°
2026-05-06 03:42 20.00470 -69.11219 37128 ft 497 kts 135°
2026-05-06 03:43 19.95883 -69.05723 37120 ft 497 kts 135°
2026-05-06 03:43 19.91299 -69.00232 37127 ft 496 kts 135°
2026-05-06 03:44 19.86717 -68.94744 37115 ft 496 kts 134°
2026-05-06 03:44 19.82294 -68.89179 37090 ft 497 kts 132°
2026-05-06 03:45 19.77990 -68.83431 37113 ft 497 kts 132°
2026-05-06 03:45 19.73690 -68.77691 37116 ft 496 kts 132°
2026-05-06 03:46 19.69339 -68.72009 37121 ft 496 kts 133°
2026-05-06 03:46 19.64962 -68.66361 37120 ft 495 kts 133°
2026-05-06 03:47 19.60600 -68.60705 37122 ft 495 kts 133°
2026-05-06 03:47 19.56251 -68.55038 37117 ft 495 kts 133°
2026-05-06 03:48 19.51906 -68.49373 37122 ft 495 kts 133°
2026-05-06 03:48 19.47553 -68.43735 37128 ft 494 kts 133°
2026-05-06 03:49 19.43204 -68.38103 37109 ft 494 kts 133°
2026-05-06 03:49 19.38855 -68.32476 37119 ft 493 kts 133°
2026-05-06 03:50 19.34533 -68.26883 36997 ft 482 kts 133°
2026-05-06 03:50 19.32422 -68.24151 36563 ft 477 kts 133°
2026-05-06 03:50 19.30325 -68.21439 35994 ft 475 kts 133°
2026-05-06 03:51 19.28233 -68.18739 35383 ft 475 kts 133°
2026-05-06 03:51 19.26134 -68.16033 34750 ft 476 kts 132°
2026-05-06 03:51 19.24033 -68.13324 34103 ft 476 kts 132°
2026-05-06 03:51 19.21924 -68.10605 33328 ft 478 kts 132°
2026-05-06 03:52 19.19809 -68.07880 32496 ft 481 kts 132°
2026-05-06 03:52 19.17712 -68.05179 31650 ft 484 kts 131°
2026-05-06 03:52 19.15567 -68.02416 30913 ft 488 kts 131°
2026-05-06 03:52 19.13408 -67.99636 30210 ft 489 kts 131°
2026-05-06 03:53 19.11257 -67.96863 29425 ft 487 kts 131°
2026-05-06 03:53 19.09112 -67.94098 28639 ft 485 kts 131°
2026-05-06 03:53 19.06981 -67.91356 27853 ft 477 kts 131°
2026-05-06 03:53 19.04897 -67.88676 27110 ft 467 kts 131°
2026-05-06 03:54 19.02849 -67.86046 26388 ft 461 kts 130°
2026-05-06 03:54 19.00824 -67.83450 25687 ft 455 kts 130°
2026-05-06 03:54 18.98818 -67.80876 25008 ft 454 kts 130°
2026-05-06 03:54 18.96813 -67.78301 24333 ft 453 kts 130°
2026-05-06 03:55 18.94628 -67.75922 23671 ft 450 kts 141°
2026-05-06 03:55 18.92243 -67.73791 23024 ft 446 kts 141°
2026-05-06 03:55 18.89898 -67.71702 22440 ft 441 kts 141°
2026-05-06 03:55 18.87549 -67.69618 21629 ft 441 kts 141°
2026-05-06 03:56 18.85194 -67.67537 20856 ft 441 kts 141°
2026-05-06 03:56 18.82849 -67.65466 20099 ft 434 kts 141°
2026-05-06 03:56 18.80570 -67.63456 19349 ft 421 kts 141°
2026-05-06 03:56 18.78357 -67.61503 18626 ft 409 kts 141°
2026-05-06 03:57 18.76178 -67.59579 17854 ft 410 kts 141°
2026-05-06 03:57 18.73980 -67.57641 17047 ft 413 kts 141°
2026-05-06 03:57 18.71768 -67.55689 16260 ft 416 kts 141°
2026-05-06 03:57 18.69546 -67.53728 15495 ft 417 kts 140°
2026-05-06 03:58 18.67323 -67.51768 14755 ft 418 kts 140°
2026-05-06 03:58 18.65095 -67.49803 14018 ft 416 kts 140°
2026-05-06 03:58 18.62920 -67.47884 13211 ft 398 kts 140°
2026-05-06 03:58 18.60843 -67.46054 12424 ft 380 kts 140°
2026-05-06 03:59 18.58857 -67.44305 11657 ft 365 kts 140°
2026-05-06 03:59 18.56954 -67.42628 11010 ft 350 kts 140°
2026-05-06 03:59 18.55110 -67.41002 10269 ft 342 kts 140°
2026-05-06 03:59 18.53299 -67.39408 9502 ft 339 kts 140°
2026-05-06 04:00 18.51472 -67.37799 8716 ft 345 kts 140°
2026-05-06 04:00 18.49624 -67.36169 7933 ft 348 kts 140°
2026-05-06 04:00 18.47757 -67.34528 7286 ft 348 kts 140°
2026-05-06 04:00 18.45955 -67.32946 7082 ft 334 kts 139°
2026-05-06 04:01 18.44189 -67.31395 6999 ft 317 kts 139°
2026-05-06 04:01 18.42543 -67.29948 7007 ft 299 kts 139°
2026-05-06 04:01 18.41005 -67.28599 6970 ft 285 kts 139°
2026-05-06 04:01 18.39487 -67.27266 6853 ft 278 kts 139°
2026-05-06 04:02 18.38030 -67.25984 6739 ft 276 kts 139°
2026-05-06 04:02 18.36559 -67.24690 6624 ft 275 kts 139°
2026-05-06 04:02 18.35103 -67.23411 6513 ft 270 kts 139°
2026-05-06 04:02 18.33664 -67.22149 6390 ft 269 kts 139°
2026-05-06 04:03 18.32219 -67.20883 6262 ft 271 kts 139°
2026-05-06 04:03 18.30771 -67.19613 6136 ft 271 kts 139°
2026-05-06 04:03 18.29324 -67.18345 6012 ft 271 kts 139°
2026-05-06 04:03 18.27880 -67.17078 5880 ft 270 kts 139°
2026-05-06 04:04 18.26438 -67.15813 5758 ft 270 kts 139°
2026-05-06 04:04 18.24996 -67.14554 5653 ft 269 kts 139°
2026-05-06 04:04 18.23546 -67.13316 5516 ft 268 kts 139°
2026-05-06 04:04 18.22093 -67.12092 5409 ft 268 kts 139°
2026-05-06 04:05 18.20636 -67.10871 5285 ft 268 kts 139°
2026-05-06 04:05 18.19184 -67.09653 5295 ft 267 kts 139°
2026-05-06 04:05 18.17730 -67.08428 5308 ft 268 kts 139°
2026-05-06 04:05 18.16281 -67.07206 5307 ft 267 kts 139°
2026-05-06 04:06 18.14828 -67.05979 5309 ft 268 kts 139°
2026-05-06 04:06 18.13375 -67.04753 5314 ft 268 kts 139°
2026-05-06 04:06 18.11923 -67.03527 5308 ft 267 kts 139°
2026-05-06 04:06 18.10471 -67.02303 5311 ft 268 kts 139°
2026-05-06 04:07 18.09020 -67.01080 5310 ft 268 kts 139°
2026-05-06 04:07 18.07566 -66.99856 5310 ft 268 kts 139°
2026-05-06 04:07 18.06115 -66.98633 5310 ft 267 kts 139°
2026-05-06 04:07 18.04666 -66.97413 5310 ft 267 kts 139°
2026-05-06 04:08 18.03216 -66.96191 5312 ft 267 kts 139°
2026-05-06 04:08 18.01765 -66.94969 5314 ft 267 kts 139°
2026-05-06 04:08 18.00317 -66.93748 5314 ft 265 kts 138°
2026-05-06 04:08 17.98884 -66.92540 5313 ft 264 kts 138°
2026-05-06 04:09 17.97477 -66.91355 5308 ft 252 kts 139°
2026-05-06 04:09 17.96149 -66.90242 5308 ft 236 kts 139°
2026-05-06 04:09 17.94907 -66.89200 5313 ft 221 kts 139°
2026-05-06 04:09 17.93748 -66.88227 5303 ft 206 kts 138°
2026-05-06 04:10 17.92678 -66.87297 5305 ft 195 kts 130°
2026-05-06 04:10 17.91973 -66.86124 5306 ft 189 kts 107°
2026-05-06 04:10 17.91792 -66.84766 5295 ft 190 kts 85°
2026-05-06 04:10 17.92161 -66.83438 5171 ft 192 kts 63°
2026-05-06 04:11 17.92981 -66.82337 5071 ft 190 kts 52°
2026-05-06 04:11 17.93828 -66.81333 4980 ft 178 kts 53°
2026-05-06 04:11 17.94628 -66.80377 4849 ft 170 kts 52°
2026-05-06 04:11 17.95392 -66.79462 4690 ft 163 kts 53°
2026-05-06 04:12 17.96129 -66.78576 4491 ft 159 kts 53°
2026-05-06 04:12 17.96826 -66.77730 4275 ft 151 kts 57°
2026-05-06 04:12 17.97363 -66.76808 4084 ft 142 kts 67°
2026-05-06 04:12 17.97803 -66.75900 3901 ft 138 kts 67°
2026-05-06 04:13 17.98232 -66.75020 3734 ft 137 kts 67°
2026-05-06 04:13 17.98666 -66.74129 3542 ft 138 kts 66°
2026-05-06 04:13 17.99105 -66.73226 3371 ft 139 kts 66°
2026-05-06 04:13 17.99544 -66.72325 3178 ft 139 kts 66°
2026-05-06 04:14 17.99982 -66.71427 3015 ft 137 kts 66°
2026-05-06 04:14 18.00418 -66.70535 2808 ft 137 kts 65°
2026-05-06 04:14 18.00855 -66.69641 2621 ft 137 kts 66°
2026-05-06 04:14 18.01290 -66.68748 2438 ft 139 kts 65°
2026-05-06 04:15 18.01659 -66.67828 2253 ft 138 kts 78°
2026-05-06 04:15 18.01762 -66.66843 2069 ft 134 kts 93°
2026-05-06 04:15 18.01708 -66.65856 1867 ft 138 kts 94°
2026-05-06 04:15 18.01656 -66.64855 1661 ft 138 kts 94°
2026-05-06 04:16 18.01604 -66.63845 1451 ft 139 kts 92°
2026-05-06 04:16 18.01554 -66.62837 1243 ft 138 kts 91°
2026-05-06 04:16 18.01504 -66.61830 1034 ft 137 kts 93°
2026-05-06 04:16 18.01454 -66.60838 822 ft 136 kts 92°
2026-05-06 04:17 18.01404 -66.59848 640 ft 135 kts 91°
2026-05-06 04:17 18.01355 -66.58862 452 ft 136 kts 92°
2026-05-06 04:17 18.01281 -66.57864 206 ft 137 kts 100°
2026-05-06 04:17 18.01018 -66.56906 48 ft 136 kts 108°
2026-05-06 04:18 18.00768 -66.56097 12 ft 83 kts 108°
2026-05-06 04:18 18.00662 -66.55752 13 ft 38 kts 108°
2026-05-06 04:18 18.00583 -66.55499 12 ft 29 kts 107°
2026-05-06 04:18 18.00614 -66.55426 13 ft 0 kts 19°
2026-05-06 04:19 18.00624 -66.55423 13 ft 3 kts 19°
2026-05-06 04:19 18.00654 -66.55418 13 ft 6 kts 351°
2026-05-06 04:19 18.00685 -66.55453 13 ft 8 kts 290°
2026-05-06 04:19 18.00706 -66.55519 12 ft 11 kts 288°
2026-05-06 04:20 18.00733 -66.55609 13 ft 14 kts 288°
2026-05-06 04:20 18.00766 -66.55716 13 ft 16 kts 288°
2026-05-06 04:20 18.00788 -66.55787 11 ft 11 kts 288°
2026-05-06 04:20 18.00804 -66.55840 12 ft 12 kts 288°
2026-05-06 04:21 18.00834 -66.55936 11 ft 15 kts 288°
2026-05-06 04:21 18.00865 -66.56023 13 ft 12 kts 294°
2026-05-06 04:21 18.00895 -66.56118 13 ft 15 kts 287°
2026-05-06 04:21 18.00924 -66.56214 14 ft 8 kts 287°
2026-05-06 04:22 18.00941 -66.56241 24 ft 4 kts 332°
2026-05-06 04:22 18.00978 -66.56236 26 ft 7 kts 12°
2026-05-06 04:22 18.01015 -66.56254 33 ft 3 kts 318°
2026-05-06 04:23 18.01032 -66.56270 37 ft 1 kts 319°
2026-05-06 04:23 18.01035 -66.56273 37 ft 0 kts 319°